Location: Mapua
(41.2500°S, 173.1000°E)
Time: 07:41:44
(UTC+13:00)

Envisat - Visible Passes

Search period start: 16 October 2019 00:00
Search period end: 26 October 2019 00:00
Orbit: 764 x 766 km, 98.1° (Epoch: 15 October)

Date Brightness Start Highest point End Pass type
(mag) Time Alt. Az. Time Alt. Az. Time Alt. Az.
16 Oct 3.9 20:53:58 10° S 20:59:00 54° WSW 21:03:58 10° NNW visible
17 Oct 3.0 20:17:08 10° SSE 20:22:18 70° ENE 20:27:23 10° N visible
17 Oct 6.1 21:57:45 10° SSW 22:00:42 16° WSW 22:03:39 10° W visible
18 Oct 6.5 05:56:32 10° E 05:58:21 12° ESE 06:00:10 10° SE visible
18 Oct 5.0 21:19:49 10° S 21:24:21 32° WSW 21:28:49 10° NW visible
19 Oct 3.4 20:42:38 10° S 20:47:47 68° WSW 20:52:50 10° NNW visible
20 Oct 5.8 21:46:00 10° SSW 21:49:34 19° WSW 21:53:08 10° WNW visible
21 Oct 4.5 21:08:23 10° S 21:13:10 39° WSW 21:17:53 10° NW visible
22 Oct 3.1 20:31:21 10° SSE 20:36:32 86° WSW 20:41:39 10° NNW visible
22 Oct 6.3 22:13:07 10° SW 22:14:43 11° WSW 22:16:18 10° WSW visible
23 Oct 5.5 21:34:24 10° SSW 21:38:26 24° WSW 21:42:27 10° WNW visible
24 Oct 4.1 20:56:59 10° S 21:01:57 49° WSW 21:06:52 10° NW visible
25 Oct 3.0 20:20:06 10° SSE 20:25:16 76° ENE 20:30:23 10° N visible
25 Oct 6.1 22:00:57 10° SSW 22:03:37 14° WSW 22:06:16 10° W visible
